User: anonymous   Login
Location: Fort Wayne
(41.1310°N, 85.1290°W)
Time: 22:10:18
(UTC-04:00)
Language:

OAO 2 Rocket - Orbit

View from above orbital plane
View from above orbital plane
View from above satellite
View from above satellite

Ground track
Ground track

The orbit data is extracted from the following two-line orbital elements,

1 03598U 68110B   16243.17891287  .00000138  00000-0  36573-4 0  9990
2 03598  34.9930 180.4188 0048968  26.8197 333.5014 14.54242070524080
Epoch (UTC): 30 August 2016 04:17:38
Eccentricity: 0.0048968
inclination: 34.9930°
perigee height: 677 km
apogee height: 746 km
right ascension of ascending node: 180.4188°
argument of perigee: 26.8197°
revolutions per day: 14.54242070
mean anomaly at epoch: 333.5014°
orbit number at epoch: 52408

The dashed part of the orbit path shows where the satellite is in the earth's shadow,  

DLR